Location: Bieujac
(44.5398°N, 0.1549°W)
Time: 14:41:23
(UTC+00:00)

NOSS 3-3 (A) - Pass Details

Date: 19 February 2020
Orbit: 833 x 1379 km, 63.4° (Epoch: 29 March)

Event Time Altitude Azimuth Distance (km) Brightness Sun altitude
Rises 05:55:08 0° 204° (SSW) 3,402 6.7 -11.4°
Reaches altitude 10° 05:57:31 10° 201° (SSW) 2,504 6.0 -11.0°
Maximum altitude 06:03:12 63° 121° (ESE) 1,029 4.5 -10.0°
Drops below altitude 10° 06:09:36 10° 42° (NE) 2,807 6.9 -8.9°
Sets 06:12:24 0° 40° (NE) 3,847 7.6 -8.4°
